Weather History for HETB - November, 2012

Change the Weather History Date:

Monday, November 5, 2012

  Actual Average Record
Temperature  
Mean Temperature 72 °F -  
Max Temperature 82 °F - - ()
Min Temperature 62 °F - - ()
Cooling Degree Days 7    
Growing Degree Days 22 (Base 50)    
Moisture  
Dew Point 53 °F    
Average Humidity 56    
Maximum Humidity 83    
Minimum Humidity 28    
Precipitation  
Precipitation 0.00 in - - ()
Sea Level Pressure  
Sea Level Pressure 30.05 in    
Wind  
Wind Speed 3 mph ()    
Max Wind Speed 15 mph    
Max Gust Speed -    
Visibility 6.2 miles    
Events      
T = Trace of Precipitation, MM = Missing Value Source: Averaged Metar Reports

Daily Weather History Graph

Daily Weather History Graph

Search for Another Location

Airport or City:

Trip Planner

Search our weather history database for the weather conditions in past years. The results will help you decide how hot, cold, wet, or windy it might be!

Date:

Astronomy

Nov. 05, 2012 Rise Set
Actual Time 5:57 AM EET 4:51 PM EET
Civil Twilight 5:32 AM EET 5:15 PM EET
Nautical Twilight 5:04 AM EET 5:44 PM EET
Astronomical Twilight 4:36 AM EET 6:12 PM EET
Moon 10:08 PM EET (11/5) 11:02 AM EET (11/5)
Length of Visible Light 11h 43m
Length of Day
10h 53m
Waning Gibbous, 66% of the Moon is Illuminated
Nov 5
Waning Gibbous
Nov 7
Last Quarter
Nov 14
New
Nov 20
First Quarter
Nov 28
Full

Hourly Weather History & Observations

Time (EET) Temp. Dew Point Humidity Pressure Visibility Wind Dir Wind Speed Gust Speed Precip Events Conditions
12:00 AM 71.6 °F 55.4 °F 57% 30.06 in 6.2 mi NW 3.5 mph - N/A   Mostly Cloudy
1:00 AM 68.0 °F 57.2 °F 68% 30.06 in 6.2 mi Calm Calm - N/A   Mostly Cloudy
2:00 AM 66.2 °F 59.0 °F 78% 30.09 in 6.2 mi West 15.0 mph - N/A   Mostly Cloudy
3:00 AM 64.4 °F 59.0 °F 83% 30.04 in 6.2 mi NW 5.8 mph - N/A   Mostly Cloudy
4:00 AM 64.4 °F 53.6 °F 68% 30.04 in 6.2 mi Calm Calm - N/A   Mostly Cloudy
5:00 AM 66.2 °F 55.4 °F 68% 30.04 in 6.2 mi Calm Calm - N/A   Mostly Cloudy
6:00 AM 66.2 °F 51.8 °F 60% 30.06 in 6.2 mi Calm Calm - N/A   Mostly Cloudy
7:00 AM 62.6 °F 57.2 °F 82% 30.06 in 6.2 mi Calm Calm - N/A   Mostly Cloudy
8:00 AM 68.0 °F 55.4 °F 64% 30.09 in 6.2 mi Calm Calm - N/A   Mostly Cloudy
9:00 AM 68.0 °F 55.4 °F 64% 30.09 in 6.2 mi Calm Calm - N/A   Mostly Cloudy
10:00 AM 71.6 °F 55.4 °F 57% 30.06 in - Calm Calm - N/A   Clear
11:00 AM 75.2 °F 50.0 °F 41% 30.06 in - Calm Calm - N/A   Clear
12:00 PM 78.8 °F 50.0 °F 36% 30.06 in - Variable 2.3 mph - N/A   Clear
1:00 PM 82.4 °F 48.2 °F 30% 30.04 in - Calm Calm - N/A   Clear
2:00 PM 82.4 °F 46.4 °F 28% 30.01 in - WNW 9.2 mph - N/A   Clear
3:00 PM 82.4 °F 46.4 °F 28% 30.01 in - NNW 3.5 mph - N/A   Clear
4:00 PM 82.4 °F 46.4 °F 28% 30.01 in 6.2 mi North 8.1 mph - N/A   Mostly Cloudy
5:00 PM 78.8 °F 44.6 °F 30% 30.01 in 6.2 mi North 6.9 mph - N/A   Mostly Cloudy
6:00 PM 75.2 °F 46.4 °F 36% 30.01 in 6.2 mi NNW 6.9 mph - N/A   Mostly Cloudy
7:00 PM 68.0 °F 55.4 °F 64% 30.04 in 6.2 mi WNW 10.4 mph - N/A   Mostly Cloudy
8:00 PM 68.0 °F 53.6 °F 60% 30.06 in - Calm Calm - N/A   Clear
9:00 PM 64.4 °F 55.4 °F 73% 30.06 in - Calm Calm - N/A   Clear
10:00 PM 64.4 °F 57.2 °F 77% 30.06 in - Calm Calm - N/A   Clear
11:00 PM 66.2 °F 55.4 °F 68% 30.06 in - Calm Calm - N/A   Clear